Time,TemperatureF,DewpointF,PressureIn,WindDirection,WindDirectionDegrees,WindSpeedMPH,WindSpeedGustMPH,Humidity,HourlyPrecipIn,Conditions,Clouds,dailyrainin,SoftwareType,DateUTC
2013-06-03 00:01:00,66.6,53.8,28.91,NNW,337,1.3,3.6,63,0.00,,,0.00,WUHU216WMR100,2013-06-03 04:01:00,
2013-06-03 00:02:00,66.4,54.0,28.91,NNW,337,0.3,4.0,64,0.00,,,0.00,WUHU216WMR100,2013-06-03 04:02:00,
2013-06-03 00:07:00,66.4,54.5,28.88,North,0,3.1,5.6,65,0.00,,,0.00,WUHU216WMR100,2013-06-03 04:07:00,
2013-06-03 00:12:00,66.2,53.8,28.88,North,0,3.2,6.9,64,0.00,,,0.00,WUHU216WMR100,2013-06-03 04:12:00,
2013-06-03 00:17:00,66.0,53.6,28.88,NNE,22,0.9,6.9,64,0.00,,,0.00,WUHU216WMR100,2013-06-03 04:17:00,
2013-06-03 00:22:00,65.7,53.4,28.88,NNE,22,0.0,3.8,64,0.00,,,0.00,WUHU216WMR100,2013-06-03 04:22:00,
2013-06-03 00:27:00,65.3,53.0,28.88,NNE,22,0.0,2.0,64,0.00,,,0.00,WUHU216WMR100,2013-06-03 04:27:00,
2013-06-03 00:32:00,65.1,52.8,28.88,NNE,22,0.0,0.0,64,0.00,,,0.00,WUHU216WMR100,2013-06-03 04:32:00,
2013-06-03 00:37:00,64.6,52.3,28.88,NNE,22,0.0,0.0,64,0.00,,,0.00,WUHU216WMR100,2013-06-03 04:37:00,
2013-06-03 00:42:00,64.2,52.4,28.88,NNE,22,0.9,1.6,65,0.00,,,0.00,WUHU216WMR100,2013-06-03 04:42:00,
2013-06-03 00:47:00,64.2,52.8,28.88,NNE,22,0.9,2.0,66,0.00,,,0.00,WUHU216WMR100,2013-06-03 04:47:00,
2013-06-03 00:52:00,64.4,53.4,28.91,NNE,22,1.1,2.0,67,0.00,,,0.00,WUHU216WMR100,2013-06-03 04:52:00,
2013-06-03 00:57:00,64.8,53.7,28.91,NNE,22,0.5,1.6,67,0.00,,,0.00,WUHU216WMR100,2013-06-03 04:57:00,
2013-06-03 01:02:00,64.9,54.6,28.91,North,0,2.2,3.6,69,0.00,,,0.00,WUHU216WMR100,2013-06-03 05:02:00,
2013-06-03 01:07:00,64.9,54.6,28.91,North,0,2.7,3.6,69,0.00,,,0.00,WUHU216WMR100,2013-06-03 05:07:00,
2013-06-03 01:12:00,64.9,54.6,28.91,North,0,2.0,3.4,69,0.00,,,0.00,WUHU216WMR100,2013-06-03 05:12:00,
2013-06-03 01:17:00,64.9,54.6,28.91,WNW,292,2.9,3.6,69,0.00,,,0.00,WUHU216WMR100,2013-06-03 05:17:00,
2013-06-03 01:22:00,64.9,54.2,28.91,WNW,286,2.8,4.3,68,0.00,,,0.00,WUHU216WMR100,2013-06-03 05:22:00,
2013-06-03 01:27:00,64.9,53.8,28.91,West,270,0.6,4.3,67,0.00,,,0.00,WUHU216WMR100,2013-06-03 05:27:00,
2013-06-03 01:32:00,64.9,54.2,28.91,NNW,337,2.3,4.3,68,0.00,,,0.00,WUHU216WMR100,2013-06-03 05:32:00,
2013-06-03 01:37:00,64.9,54.2,28.91,NNW,337,1.9,4.3,68,0.00,,,0.00,WUHU216WMR100,2013-06-03 05:37:00,
2013-06-03 01:42:00,64.9,54.2,28.91,NNW,337,2.7,4.9,68,0.00,,,0.00,WUHU216WMR100,2013-06-03 05:42:00,
2013-06-03 01:47:00,64.9,54.2,28.91,NNW,337,0.9,4.9,68,0.00,,,0.00,WUHU216WMR100,2013-06-03 05:47:00,
2013-06-03 01:53:00,64.8,54.2,28.91,NNW,337,2.6,4.3,68,0.00,,,0.00,WUHU216WMR100,2013-06-03 05:53:00,
2013-06-03 01:58:00,64.8,54.2,28.91,NNW,337,2.5,4.3,68,0.00,,,0.00,WUHU216WMR100,2013-06-03 05:58:00,
2013-06-03 02:03:00,64.8,54.2,28.91,NNW,337,2.5,4.3,68,0.00,,,0.00,WUHU216WMR100,2013-06-03 06:03:00,
2013-06-03 02:08:00,64.8,54.2,28.91,NNW,337,1.6,4.3,68,0.00,,,0.00,WUHU216WMR100,2013-06-03 06:08:00,
2013-06-03 02:13:00,64.6,54.0,28.91,NNE,22,2.0,3.1,68,0.00,,,0.00,WUHU216WMR100,2013-06-03 06:13:00,
2013-06-03 02:18:00,64.6,54.0,28.91,NNW,337,1.6,3.4,68,0.00,,,0.00,WUHU216WMR100,2013-06-03 06:18:00,
2013-06-03 02:23:00,64.2,53.6,28.91,East,90,3.8,6.0,68,0.00,,,0.00,WUHU216WMR100,2013-06-03 06:23:00,
2013-06-03 02:28:00,64.0,53.4,28.91,North,0,3.6,6.0,68,0.00,,,0.00,WUHU216WMR100,2013-06-03 06:28:00,
2013-06-03 02:32:00,64.0,53.4,28.91,NNW,337,2.2,5.6,68,0.00,,,0.00,WUHU216WMR100,2013-06-03 06:32:00,
2013-06-03 02:38:00,63.9,53.7,28.91,North,0,2.2,4.9,69,0.00,,,0.00,WUHU216WMR100,2013-06-03 06:38:00,
2013-06-03 02:43:00,63.7,53.5,28.91,NNE,21,3.1,4.9,69,0.00,,,0.00,WUHU216WMR100,2013-06-03 06:43:00,
2013-06-03 02:48:00,63.5,53.3,28.91,NNW,337,2.9,4.9,69,0.00,,,0.00,WUHU216WMR100,2013-06-03 06:48:00,
2013-06-03 02:53:00,63.3,53.1,28.91,North,0,3.7,6.3,69,0.00,,,0.00,WUHU216WMR100,2013-06-03 06:53:00,
2013-06-03 02:58:00,63.1,53.3,28.91,NW,306,2.7,6.3,70,0.00,,,0.00,WUHU216WMR100,2013-06-03 06:58:00,
2013-06-03 03:03:00,63.0,53.2,28.91,NNW,344,2.3,6.0,70,0.00,,,0.00,WUHU216WMR100,2013-06-03 07:03:00,
2013-06-03 03:08:00,62.8,53.4,28.91,NNW,337,3.4,6.3,71,0.00,,,0.00,WUHU216WMR100,2013-06-03 07:08:00,
2013-06-03 03:13:00,62.6,53.2,28.91,NNW,337,2.9,6.3,71,0.00,,,0.00,WUHU216WMR100,2013-06-03 07:13:00,
2013-06-03 03:18:00,62.6,53.6,28.91,North,0,2.2,4.9,72,0.00,,,0.00,WUHU216WMR100,2013-06-03 07:18:00,
2013-06-03 03:23:00,62.4,53.8,28.91,NNW,337,3.6,6.0,73,0.00,,,0.00,WUHU216WMR100,2013-06-03 07:23:00,
2013-06-03 03:28:00,62.4,53.8,28.91,NNW,345,2.3,6.0,73,0.00,,,0.00,WUHU216WMR100,2013-06-03 07:28:00,
2013-06-03 03:33:00,62.4,53.8,28.91,ENE,67,1.1,4.0,73,0.00,,,0.00,WUHU216WMR100,2013-06-03 07:33:00,
2013-06-03 03:38:00,62.2,53.6,28.91,NNE,22,1.4,3.4,73,0.00,,,0.00,WUHU216WMR100,2013-06-03 07:38:00,
2013-06-03 03:43:00,62.2,53.9,28.91,East,92,1.6,3.4,74,0.00,,,0.00,WUHU216WMR100,2013-06-03 07:43:00,
2013-06-03 03:48:00,62.2,53.9,28.91,East,87,2.6,4.0,74,0.00,,,0.00,WUHU216WMR100,2013-06-03 07:48:00,
2013-06-03 03:53:00,62.2,54.3,28.91,NE,51,2.5,6.3,75,0.00,,,0.00,WUHU216WMR100,2013-06-03 07:53:00,
2013-06-03 03:57:00,62.2,53.9,28.91,South,180,1.3,6.3,74,0.00,,,0.00,WUHU216WMR100,2013-06-03 07:57:00,
2013-06-03 04:03:00,62.1,53.8,28.91,NE,41,3.3,5.6,74,0.00,,,0.00,WUHU216WMR100,2013-06-03 08:03:00,
2013-06-03 04:08:00,61.9,53.3,28.91,ESE,112,4.0,6.3,73,0.00,,,0.00,WUHU216WMR100,2013-06-03 08:08:00,
2013-06-03 04:12:00,61.7,53.1,28.91,NNE,22,1.3,6.3,73,0.00,,,0.00,WUHU216WMR100,2013-06-03 08:12:00,
2013-06-03 04:18:00,61.7,53.1,28.91,East,90,3.8,5.8,73,0.00,,,0.00,WUHU216WMR100,2013-06-03 08:18:00,
2013-06-03 04:23:00,61.3,52.7,28.91,East,90,3.1,6.0,73,0.00,,,0.00,WUHU216WMR100,2013-06-03 08:23:00,
2013-06-03 04:28:00,61.3,52.7,28.91,ENE,67,5.4,6.0,73,0.00,,,0.00,WUHU216WMR100,2013-06-03 08:28:00,
2013-06-03 04:33:00,61.2,52.2,28.91,ESE,112,4.5,6.3,72,0.00,,,0.00,WUHU216WMR100,2013-06-03 08:33:00,
2013-06-03 04:38:00,61.0,51.7,28.91,ENE,67,4.0,6.3,71,0.00,,,0.00,WUHU216WMR100,2013-06-03 08:38:00,
2013-06-03 04:43:00,61.0,51.7,28.91,ENE,67,3.8,6.0,71,0.00,,,0.00,WUHU216WMR100,2013-06-03 08:43:00,
2013-06-03 04:48:00,60.8,51.5,28.94,ENE,69,3.4,6.0,71,0.00,,,0.00,WUHU216WMR100,2013-06-03 08:48:00,
2013-06-03 04:53:00,60.6,51.3,28.94,East,82,3.0,5.8,71,0.00,,,0.00,WUHU216WMR100,2013-06-03 08:53:00,
2013-06-03 04:58:00,60.6,50.9,28.94,ENE,67,3.1,6.3,70,0.00,,,0.00,WUHU216WMR100,2013-06-03 08:58:00,
2013-06-03 05:03:00,60.4,50.7,28.94,East,90,3.1,6.3,70,0.00,,,0.00,WUHU216WMR100,2013-06-03 09:03:00,
2013-06-03 05:08:00,60.4,50.7,28.94,East,90,3.1,5.8,70,0.00,,,0.00,WUHU216WMR100,2013-06-03 09:08:00,
2013-06-03 05:13:00,60.4,51.1,28.94,ESE,112,4.0,6.0,71,0.00,,,0.00,WUHU216WMR100,2013-06-03 09:13:00,
2013-06-03 05:18:00,60.4,51.1,28.94,NNE,27,2.4,6.0,71,0.00,,,0.00,WUHU216WMR100,2013-06-03 09:18:00,
2013-06-03 05:23:00,60.4,51.1,28.94,North,0,0.0,5.6,71,0.00,,,0.00,WUHU216WMR100,2013-06-03 09:23:00,
2013-06-03 05:28:00,60.4,51.5,28.94,East,90,2.2,3.4,72,0.00,,,0.00,WUHU216WMR100,2013-06-03 09:28:00,
2013-06-03 05:33:00,60.3,51.4,28.94,ENE,67,2.8,3.6,72,0.00,,,0.00,WUHU216WMR100,2013-06-03 09:33:00,
2013-06-03 05:38:00,60.1,51.5,28.94,SSW,202,2.2,3.6,73,0.00,,,0.00,WUHU216WMR100,2013-06-03 09:38:00,
2013-06-03 05:43:00,60.1,51.2,28.94,ENE,67,3.4,4.9,72,0.00,,,0.00,WUHU216WMR100,2013-06-03 09:43:00,
2013-06-03 05:48:00,59.9,51.0,28.94,North,0,2.5,4.9,72,0.00,,,0.00,WUHU216WMR100,2013-06-03 09:48:00,
2013-06-03 05:53:00,59.9,51.0,28.94,North,0,1.9,4.9,72,0.00,,,0.00,WUHU216WMR100,2013-06-03 09:53:00,
2013-06-03 06:00:00,59.7,50.8,28.94,North,0,2.0,8.7,72,0.00,,,0.00,WUHU216WMR100,2013-06-03 10:00:00,
2013-06-03 06:05:00,59.7,50.8,28.97,NW,315,0.9,4.5,72,0.00,,,0.00,WUHU216WMR100,2013-06-03 10:05:00,
2013-06-03 06:10:00,59.7,50.8,28.97,ENE,67,2.5,4.3,72,0.00,,,0.00,WUHU216WMR100,2013-06-03 10:10:00,
2013-06-03 06:15:00,59.5,50.6,28.97,ENE,76,2.9,5.6,72,0.00,,,0.00,WUHU216WMR100,2013-06-03 10:15:00,
2013-06-03 06:20:00,59.7,50.8,28.94,NNW,337,0.5,5.6,72,0.00,,,0.00,WUHU216WMR100,2013-06-03 10:20:00,
2013-06-03 06:25:00,59.5,50.2,28.94,East,92,2.5,3.4,71,0.00,,,0.00,WUHU216WMR100,2013-06-03 10:25:00,
2013-06-03 06:30:00,59.4,50.1,28.94,NNE,22,1.6,3.4,71,0.00,,,0.00,WUHU216WMR100,2013-06-03 10:30:00,
2013-06-03 06:35:00,59.4,50.1,28.97,North,0,1.3,3.1,71,0.00,,,0.00,WUHU216WMR100,2013-06-03 10:35:00,
2013-06-03 06:40:00,59.4,49.7,28.97,NNW,339,3.1,6.5,70,0.00,,,0.00,WUHU216WMR100,2013-06-03 10:40:00,
2013-06-03 06:45:00,59.4,49.7,28.97,NNW,337,0.4,6.5,70,0.00,,,0.00,WUHU216WMR100,2013-06-03 10:45:00,
2013-06-03 06:50:00,59.4,49.7,28.97,ENE,67,2.7,3.8,70,0.00,,,0.00,WUHU216WMR100,2013-06-03 10:50:00,
2013-06-03 06:55:00,59.2,49.2,28.97,NNW,337,1.2,3.8,69,0.00,,,0.00,WUHU216WMR100,2013-06-03 10:55:00,
2013-06-03 07:00:00,59.2,48.8,28.97,NNW,337,2.5,3.6,68,0.00,,,0.00,WUHU216WMR100,2013-06-03 11:00:00,
2013-06-03 07:05:00,59.2,48.4,28.97,East,90,3.8,5.8,67,0.00,,,0.00,WUHU216WMR100,2013-06-03 11:05:00,
2013-06-03 07:11:00,59.4,48.6,28.97,North,0,1.3,5.8,67,0.00,,,0.00,WUHU216WMR100,2013-06-03 11:11:00,
2013-06-03 07:16:00,59.4,48.6,28.97,North,0,2.2,4.9,67,0.00,,,0.00,WUHU216WMR100,2013-06-03 11:16:00,
2013-06-03 07:22:00,59.4,48.2,28.97,NE,51,2.8,7.8,66,0.00,,,0.00,WUHU216WMR100,2013-06-03 11:22:00,
2013-06-03 07:27:00,59.4,48.6,28.97,NNW,333,1.6,7.8,67,0.00,,,0.00,WUHU216WMR100,2013-06-03 11:27:00,
2013-06-03 07:32:00,59.2,48.0,28.97,North,1,3.3,7.8,66,0.00,,,0.00,WUHU216WMR100,2013-06-03 11:32:00,
2013-06-03 07:37:00,59.2,48.0,28.97,North,1,2.7,7.8,66,0.00,,,0.00,WUHU216WMR100,2013-06-03 11:37:00,
2013-06-03 07:42:00,59.4,48.2,28.97,ENE,74,3.2,5.8,66,0.00,,,0.00,WUHU216WMR100,2013-06-03 11:42:00,
2013-06-03 07:47:00,59.5,48.3,28.97,North,0,2.5,5.8,66,0.00,,,0.00,WUHU216WMR100,2013-06-03 11:47:00,
2013-06-03 07:52:00,59.5,48.3,28.97,NNW,337,2.5,4.3,66,0.00,,,0.00,WUHU216WMR100,2013-06-03 11:52:00,
2013-06-03 07:57:00,59.7,48.5,28.97,NNW,337,2.7,5.8,66,0.00,,,0.00,WUHU216WMR100,2013-06-03 11:57:00,
2013-06-03 08:02:00,59.7,48.5,28.97,NE,48,2.1,5.8,66,0.00,,,0.00,WUHU216WMR100,2013-06-03 12:02:00,
2013-06-03 08:07:00,59.5,47.9,28.97,NNW,337,4.5,6.3,65,0.00,,,0.00,WUHU216WMR100,2013-06-03 12:07:00,
2013-06-03 08:12:00,59.7,48.5,28.97,NNE,18,1.5,6.3,66,0.00,,,0.00,WUHU216WMR100,2013-06-03 12:12:00,
2013-06-03 08:17:00,59.9,48.7,28.97,NNE,23,2.3,4.7,66,0.00,,,0.00,WUHU216WMR100,2013-06-03 12:17:00,
2013-06-03 08:22:00,59.7,48.5,28.97,North,0,4.3,6.3,66,0.00,,,0.00,WUHU216WMR100,2013-06-03 12:22:00,
2013-06-03 08:27:00,59.7,48.5,28.97,North,0,2.5,6.3,66,0.00,,,0.00,WUHU216WMR100,2013-06-03 12:27:00,
2013-06-03 08:32:00,59.9,48.7,29.00,North,0,2.9,4.9,66,0.00,,,0.00,WUHU216WMR100,2013-06-03 12:32:00,
2013-06-03 08:37:00,59.7,48.1,29.00,NNE,13,2.2,4.0,65,0.00,,,0.00,WUHU216WMR100,2013-06-03 12:37:00,
2013-06-03 08:42:00,60.1,48.4,29.00,East,90,2.0,5.4,65,0.00,,,0.00,WUHU216WMR100,2013-06-03 12:42:00,
2013-06-03 08:47:00,60.1,48.0,29.00,North,0,3.1,7.2,64,0.00,,,0.00,WUHU216WMR100,2013-06-03 12:47:00,
2013-06-03 08:52:00,60.1,47.2,29.00,East,89,3.4,7.2,62,0.00,,,0.00,WUHU216WMR100,2013-06-03 12:52:00,
2013-06-03 08:57:00,60.4,47.5,29.00,NE,35,1.7,6.5,62,0.00,,,0.00,WUHU216WMR100,2013-06-03 12:57:00,
2013-06-03 09:02:00,60.4,47.0,29.00,NNE,31,3.5,6.3,61,0.00,,,0.00,WUHU216WMR100,2013-06-03 13:02:00,
2013-06-03 09:07:00,61.7,48.7,29.00,ESE,112,2.0,6.3,62,0.00,,,0.00,WUHU216WMR100,2013-06-03 13:07:00,
2013-06-03 09:12:00,61.3,47.0,29.00,East,82,3.7,7.8,59,0.00,,,0.00,WUHU216WMR100,2013-06-03 13:12:00,
2013-06-03 09:17:00,61.9,47.5,29.00,NE,48,1.9,7.8,59,0.00,,,0.00,WUHU216WMR100,2013-06-03 13:17:00,
2013-06-03 09:22:00,62.2,46.9,29.00,NNW,337,2.1,3.8,57,0.00,,,0.00,WUHU216WMR100,2013-06-03 13:22:00,
2013-06-03 09:27:00,62.2,46.9,29.00,North,0,2.0,3.8,57,0.00,,,0.00,WUHU216WMR100,2013-06-03 13:27:00,
2013-06-03 09:32:00,61.7,46.4,29.00,ENE,77,3.5,5.4,57,0.00,,,0.00,WUHU216WMR100,2013-06-03 13:32:00,
2013-06-03 09:37:00,62.2,46.4,29.00,North,9,2.7,5.4,56,0.00,,,0.00,WUHU216WMR100,2013-06-03 13:37:00,
2013-06-03 09:42:00,62.4,46.6,29.00,ENE,74,3.3,6.9,56,0.00,,,0.00,WUHU216WMR100,2013-06-03 13:42:00,
2013-06-03 09:47:00,61.7,45.5,29.00,NNW,337,3.6,6.9,55,0.00,,,0.00,WUHU216WMR100,2013-06-03 13:47:00,
2013-06-03 09:52:00,61.0,45.8,29.00,ESE,112,3.1,5.6,57,0.00,,,0.00,WUHU216WMR100,2013-06-03 13:52:00,
2013-06-03 09:57:00,60.8,46.0,29.00,ENE,67,2.7,5.6,58,0.00,,,0.00,WUHU216WMR100,2013-06-03 13:57:00,
2013-06-03 10:02:00,60.4,46.6,29.00,NE,47,2.1,5.4,60,0.00,,,0.00,WUHU216WMR100,2013-06-03 14:02:00,
2013-06-03 10:07:00,60.6,47.2,29.00,NNE,28,1.4,5.6,61,0.00,,,0.00,WUHU216WMR100,2013-06-03 14:07:00,
2013-06-03 10:12:00,60.4,47.0,29.00,NE,45,3.6,5.6,61,0.00,,,0.00,WUHU216WMR100,2013-06-03 14:12:00,
2013-06-03 10:17:00,60.8,47.0,29.00,NNW,337,3.4,4.3,60,0.00,,,0.00,WUHU216WMR100,2013-06-03 14:17:00,
2013-06-03 10:22:00,61.3,47.0,29.00,WNW,292,3.4,4.3,59,0.00,,,0.00,WUHU216WMR100,2013-06-03 14:22:00,
2013-06-03 10:27:00,61.7,46.9,29.00,ENE,75,2.5,4.7,58,0.00,,,0.00,WUHU216WMR100,2013-06-03 14:27:00,
2013-06-03 10:32:00,61.5,46.2,29.00,East,90,3.1,4.7,57,0.00,,,0.00,WUHU216WMR100,2013-06-03 14:32:00,
2013-06-03 10:38:00,61.7,46.4,29.00,NNE,21,2.5,4.0,57,0.00,,,0.00,WUHU216WMR100,2013-06-03 14:38:00,
2013-06-03 10:43:00,62.1,46.3,29.00,East,90,2.9,5.6,56,0.00,,,0.00,WUHU216WMR100,2013-06-03 14:43:00,
2013-06-03 10:48:00,62.4,46.1,29.00,ESE,105,1.4,5.6,55,0.00,,,0.00,WUHU216WMR100,2013-06-03 14:48:00,
2013-06-03 10:53:00,62.6,45.8,29.00,East,83,3.8,5.4,54,0.00,,,0.00,WUHU216WMR100,2013-06-03 14:53:00,
2013-06-03 10:58:00,62.6,45.8,29.00,NE,50,4.0,6.5,54,0.00,,,0.00,WUHU216WMR100,2013-06-03 14:58:00,
2013-06-03 11:03:00,63.7,46.8,29.00,ESE,112,2.9,6.5,54,0.00,,,0.00,WUHU216WMR100,2013-06-03 15:03:00,
2013-06-03 11:08:00,65.3,46.2,29.00,East,90,3.8,6.5,50,0.00,,,0.00,WUHU216WMR100,2013-06-03 15:08:00,
2013-06-03 11:13:00,65.5,45.8,29.00,NNW,337,4.5,6.0,49,0.00,,,0.00,WUHU216WMR100,2013-06-03 15:13:00,
2013-06-03 11:18:00,65.8,45.0,29.00,East,90,6.5,8.5,47,0.00,,,0.00,WUHU216WMR100,2013-06-03 15:18:00,
2013-06-03 11:23:00,65.7,45.5,29.00,East,95,2.7,8.5,48,0.00,,,0.00,WUHU216WMR100,2013-06-03 15:23:00,
2013-06-03 11:28:00,64.8,44.6,29.00,ENE,69,3.9,8.5,48,0.00,,,0.00,WUHU216WMR100,2013-06-03 15:28:00,
2013-06-03 11:33:00,65.1,44.9,29.00,ENE,67,4.0,6.5,48,0.00,,,0.00,WUHU216WMR100,2013-06-03 15:33:00,
2013-06-03 11:38:00,64.9,44.7,29.00,ENE,67,4.3,6.5,48,0.00,,,0.00,WUHU216WMR100,2013-06-03 15:38:00,
2013-06-03 11:43:00,64.4,44.3,29.00,NNW,334,4.6,6.5,48,0.00,,,0.00,WUHU216WMR100,2013-06-03 15:43:00,
2013-06-03 11:48:00,64.6,44.5,29.00,North,0,4.0,6.0,48,0.00,,,0.00,WUHU216WMR100,2013-06-03 15:48:00,
2013-06-03 11:53:00,64.4,44.3,29.00,NNW,337,6.9,8.5,48,0.00,,,0.00,WUHU216WMR100,2013-06-03 15:53:00,
2013-06-03 11:58:00,64.8,44.6,29.00,NNE,15,2.4,8.5,48,0.00,,,0.00,WUHU216WMR100,2013-06-03 15:58:00,
2013-06-03 12:03:00,65.3,45.7,29.03,NNE,22,2.2,8.1,49,0.00,,,0.00,WUHU216WMR100,2013-06-03 16:03:00,
2013-06-03 12:08:00,65.1,44.9,29.03,NNE,22,3.1,7.4,48,0.00,,,0.00,WUHU216WMR100,2013-06-03 16:08:00,
2013-06-03 12:13:00,64.8,44.6,29.03,WNW,292,4.7,7.4,48,0.00,,,0.00,WUHU216WMR100,2013-06-03 16:13:00,
2013-06-03 12:18:00,64.2,44.1,29.03,North,357,4.2,6.5,48,0.00,,,0.00,WUHU216WMR100,2013-06-03 16:18:00,
2013-06-03 12:23:00,64.2,44.6,29.03,NNE,22,4.3,6.5,49,0.00,,,0.00,WUHU216WMR100,2013-06-03 16:23:00,
2013-06-03 12:28:00,64.4,44.3,29.03,NNW,337,3.4,6.3,48,0.00,,,0.00,WUHU216WMR100,2013-06-03 16:28:00,
2013-06-03 12:33:00,64.8,44.6,29.03,NNE,13,3.7,6.3,48,0.00,,,0.00,WUHU216WMR100,2013-06-03 16:33:00,
2013-06-03 12:38:00,64.8,44.6,29.03,ENE,77,3.6,6.3,48,0.00,,,0.00,WUHU216WMR100,2013-06-03 16:38:00,
2013-06-03 12:44:00,65.7,43.7,29.03,North,0,3.6,8.7,45,0.00,,,0.00,WUHU216WMR100,2013-06-03 16:44:00,
2013-06-03 12:49:00,66.2,44.8,29.03,NNW,337,2.9,8.7,46,0.00,,,0.00,WUHU216WMR100,2013-06-03 16:49:00,
2013-06-03 12:55:00,65.7,44.3,29.03,ENE,67,3.6,7.2,46,0.00,,,0.00,WUHU216WMR100,2013-06-03 16:55:00,
2013-06-03 13:00:00,65.7,43.7,29.03,North,0,4.7,7.4,45,0.00,,,0.00,WUHU216WMR100,2013-06-03 17:00:00,
2013-06-03 13:05:00,65.8,43.8,29.03,North,0,4.0,7.4,45,0.00,,,0.00,WUHU216WMR100,2013-06-03 17:05:00,
2013-06-03 13:10:00,65.1,43.2,29.03,North,350,5.1,7.8,45,0.00,,,0.00,WUHU216WMR100,2013-06-03 17:10:00,
2013-06-03 13:15:00,65.3,43.4,29.03,North,356,3.4,7.8,45,0.00,,,0.00,WUHU216WMR100,2013-06-03 17:15:00,
2013-06-03 13:20:00,65.8,44.4,29.03,West,267,3.3,7.6,46,0.00,,,0.00,WUHU216WMR100,2013-06-03 17:20:00,
2013-06-03 13:25:00,66.4,43.8,29.03,NW,317,4.3,7.6,44,0.00,,,0.00,WUHU216WMR100,2013-06-03 17:25:00,
2013-06-03 13:30:00,66.4,43.8,29.03,NNW,337,3.6,7.6,44,0.00,,,0.00,WUHU216WMR100,2013-06-03 17:30:00,
2013-06-03 13:35:00,66.7,44.0,29.03,NE,44,2.9,7.6,44,0.00,,,0.00,WUHU216WMR100,2013-06-03 17:35:00,
2013-06-03 13:40:00,66.2,43.6,29.03,WNW,292,5.6,7.6,44,0.00,,,0.00,WUHU216WMR100,2013-06-03 17:40:00,
2013-06-03 13:45:00,66.0,44.0,29.03,NNW,348,5.1,8.1,45,0.00,,,0.00,WUHU216WMR100,2013-06-03 17:45:00,
2013-06-03 13:50:00,66.2,44.2,29.00,NNW,347,3.4,8.1,45,0.00,,,0.00,WUHU216WMR100,2013-06-03 17:50:00,
2013-06-03 13:55:00,66.0,44.0,29.00,NNW,336,2.9,6.3,45,0.00,,,0.00,WUHU216WMR100,2013-06-03 17:55:00,
2013-06-03 14:00:00,66.6,44.5,29.00,NNW,344,2.5,6.3,45,0.00,,,0.00,WUHU216WMR100,2013-06-03 18:00:00,
2013-06-03 14:05:00,66.4,43.8,29.03,WNW,292,3.4,6.9,44,0.00,,,0.00,WUHU216WMR100,2013-06-03 18:05:00,
2013-06-03 14:10:00,66.6,43.9,29.03,NNW,335,3.1,6.9,44,0.00,,,0.00,WUHU216WMR100,2013-06-03 18:10:00,
2013-06-03 14:15:00,65.8,43.2,29.03,NNW,335,3.9,5.8,44,0.00,,,0.00,WUHU216WMR100,2013-06-03 18:15:00,
2013-06-03 14:20:00,65.5,43.5,29.00,NNW,337,4.3,6.3,45,0.00,,,0.00,WUHU216WMR100,2013-06-03 18:20:00,
2013-06-03 14:25:00,65.7,44.3,29.00,NNE,32,3.8,6.5,46,0.00,,,0.00,WUHU216WMR100,2013-06-03 18:25:00,
2013-06-03 14:30:00,65.8,43.8,29.00,NNW,337,3.8,6.5,45,0.00,,,0.00,WUHU216WMR100,2013-06-03 18:30:00,
2013-06-03 14:35:00,66.0,44.0,29.00,WNW,292,3.8,6.0,45,0.00,,,0.00,WUHU216WMR100,2013-06-03 18:35:00,
2013-06-03 14:40:00,66.6,43.9,29.00,WNW,288,3.1,6.0,44,0.00,,,0.00,WUHU216WMR100,2013-06-03 18:40:00,
2013-06-03 14:45:00,66.9,43.6,29.00,North,0,3.1,5.6,43,0.00,,,0.00,WUHU216WMR100,2013-06-03 18:45:00,
2013-06-03 14:50:00,66.9,43.6,29.03,North,357,3.3,7.6,43,0.00,,,0.00,WUHU216WMR100,2013-06-03 18:50:00,
2013-06-03 14:55:00,67.3,44.0,29.03,NW,315,4.0,7.6,43,0.00,,,0.00,WUHU216WMR100,2013-06-03 18:55:00,
2013-06-03 15:00:00,68.0,45.2,29.03,WSW,247,1.1,6.9,44,0.00,,,0.00,WUHU216WMR100,2013-06-03 19:00:00,
2013-06-03 15:05:00,67.5,43.5,29.00,NNW,337,4.7,8.9,42,0.00,,,0.00,WUHU216WMR100,2013-06-03 19:05:00,
2013-06-03 15:10:00,68.0,44.6,29.00,NNE,22,2.0,8.9,43,0.00,,,0.00,WUHU216WMR100,2013-06-03 19:10:00,
2013-06-03 15:15:00,67.6,44.8,29.00,WNW,303,2.8,4.9,44,0.00,,,0.00,WUHU216WMR100,2013-06-03 19:15:00,
2013-06-03 15:20:00,67.3,43.3,29.03,NW,307,4.1,5.6,42,0.00,,,0.00,WUHU216WMR100,2013-06-03 19:20:00,
2013-06-03 15:25:00,67.5,44.8,29.03,WNW,292,1.3,5.6,44,0.00,,,0.00,WUHU216WMR100,2013-06-03 19:25:00,
2013-06-03 15:30:00,70.7,45.7,29.03,NW,318,3.8,5.8,41,0.00,,,0.00,WUHU216WMR100,2013-06-03 19:30:00,
2013-06-03 15:35:00,71.4,44.3,29.00,North,350,3.5,6.5,38,0.00,,,0.00,WUHU216WMR100,2013-06-03 19:35:00,
2013-06-03 15:40:00,70.0,43.1,29.00,WNW,292,2.2,6.5,38,0.00,,,0.00,WUHU216WMR100,2013-06-03 19:40:00,
2013-06-03 15:45:00,71.4,42.9,29.00,NW,316,3.7,6.5,36,0.00,,,0.00,WUHU216WMR100,2013-06-03 19:45:00,
2013-06-03 15:51:00,73.0,42.8,29.00,WNW,292,3.1,8.7,34,0.00,,,0.00,WUHU216WMR100,2013-06-03 19:51:00,
2013-06-03 15:56:00,72.7,41.8,29.00,NW,315,3.8,8.7,33,0.00,,,0.00,WUHU216WMR100,2013-06-03 19:56:00,
2013-06-03 16:02:00,74.3,43.2,29.00,South,180,3.1,6.5,33,0.00,,,0.00,WUHU216WMR100,2013-06-03 20:02:00,
2013-06-03 16:07:00,75.4,43.3,29.00,WNW,292,2.5,4.9,32,0.00,,,0.00,WUHU216WMR100,2013-06-03 20:07:00,
2013-06-03 16:12:00,73.9,42.0,29.00,West,270,3.4,4.9,32,0.00,,,0.00,WUHU216WMR100,2013-06-03 20:12:00,
2013-06-03 16:17:00,74.1,41.4,28.97,NNW,345,2.6,4.7,31,0.00,,,0.00,WUHU216WMR100,2013-06-03 20:17:00,
2013-06-03 16:22:00,75.2,42.3,28.97,NNW,337,3.8,4.3,31,0.00,,,0.00,WUHU216WMR100,2013-06-03 20:22:00,
2013-06-03 16:27:00,75.7,39.2,28.97,WNW,298,3.8,8.1,27,0.00,,,0.00,WUHU216WMR100,2013-06-03 20:27:00,
2013-06-03 16:32:00,74.7,37.4,29.00,NW,315,4.9,8.1,26,0.00,,,0.00,WUHU216WMR100,2013-06-03 20:32:00,
2013-06-03 16:37:00,75.0,38.6,29.00,WSW,247,3.6,7.8,27,0.00,,,0.00,WUHU216WMR100,2013-06-03 20:37:00,
2013-06-03 16:42:00,73.2,38.9,29.00,NW,321,4.1,6.5,29,0.00,,,0.00,WUHU216WMR100,2013-06-03 20:42:00,
2013-06-03 16:47:00,73.0,39.6,28.97,NNW,337,3.4,6.5,30,0.00,,,0.00,WUHU216WMR100,2013-06-03 20:47:00,
2013-06-03 16:53:00,71.4,39.0,28.97,WNW,292,4.5,5.8,31,0.00,,,0.00,WUHU216WMR100,2013-06-03 20:53:00,
2013-06-03 16:58:00,71.8,40.2,28.97,NNW,337,3.6,7.2,32,0.00,,,0.00,WUHU216WMR100,2013-06-03 20:58:00,
2013-06-03 17:03:00,72.3,39.8,28.97,West,270,3.1,7.2,31,0.00,,,0.00,WUHU216WMR100,2013-06-03 21:03:00,
2013-06-03 17:08:00,73.0,39.6,28.97,WNW,292,3.6,5.4,30,0.00,,,0.00,WUHU216WMR100,2013-06-03 21:08:00,
2013-06-03 17:13:00,73.6,37.4,28.97,NW,315,4.9,7.4,27,0.00,,,0.00,WUHU216WMR100,2013-06-03 21:13:00,
2013-06-03 17:18:00,74.7,38.3,28.97,NW,315,2.7,7.4,27,0.00,,,0.00,WUHU216WMR100,2013-06-03 21:18:00,
2013-06-03 17:23:00,75.0,37.7,28.97,North,0,3.6,4.9,26,0.00,,,0.00,WUHU216WMR100,2013-06-03 21:23:00,
2013-06-03 17:28:00,75.2,36.8,28.97,NW,315,3.1,4.3,25,0.00,,,0.00,WUHU216WMR100,2013-06-03 21:28:00,
2013-06-03 17:33:00,74.7,35.4,28.97,North,0,3.8,7.8,24,0.00,,,0.00,WUHU216WMR100,2013-06-03 21:33:00,
2013-06-03 17:38:00,74.1,34.9,28.97,NNW,337,5.6,7.8,24,0.00,,,0.00,WUHU216WMR100,2013-06-03 21:38:00,
2013-06-03 17:43:00,73.6,35.5,28.97,West,270,4.5,7.8,25,0.00,,,0.00,WUHU216WMR100,2013-06-03 21:43:00,
2013-06-03 17:48:00,73.4,35.3,28.97,NNW,337,5.4,7.8,25,0.00,,,0.00,WUHU216WMR100,2013-06-03 21:48:00,
2013-06-03 17:53:00,73.6,36.5,28.97,North,0,2.5,7.8,26,0.00,,,0.00,WUHU216WMR100,2013-06-03 21:53:00,
2013-06-03 17:58:00,74.1,36.9,28.97,NNE,22,2.7,7.4,26,0.00,,,0.00,WUHU216WMR100,2013-06-03 21:58:00,
2013-06-03 18:03:00,74.1,35.9,28.97,North,0,3.8,6.3,25,0.00,,,0.00,WUHU216WMR100,2013-06-03 22:03:00,
2013-06-03 18:08:00,73.4,35.3,28.97,NNW,337,5.6,7.4,25,0.00,,,0.00,WUHU216WMR100,2013-06-03 22:08:00,
2013-06-03 18:13:00,73.0,35.9,28.97,NNW,337,4.3,7.4,26,0.00,,,0.00,WUHU216WMR100,2013-06-03 22:13:00,
2013-06-03 18:18:00,73.4,36.3,29.00,North,358,2.9,7.6,26,0.00,,,0.00,WUHU216WMR100,2013-06-03 22:18:00,
2013-06-03 18:23:00,72.9,35.9,29.00,NNW,342,3.6,7.6,26,0.00,,,0.00,WUHU216WMR100,2013-06-03 22:23:00,
2013-06-03 18:28:00,72.7,35.7,29.00,North,350,3.2,7.6,26,0.00,,,0.00,WUHU216WMR100,2013-06-03 22:28:00,
2013-06-03 18:33:00,72.5,36.5,28.97,NNW,337,3.8,5.8,27,0.00,,,0.00,WUHU216WMR100,2013-06-03 22:33:00,
2013-06-03 18:38:00,72.1,37.0,28.97,North,0,4.7,8.1,28,0.00,,,0.00,WUHU216WMR100,2013-06-03 22:38:00,
2013-06-03 18:43:00,71.6,35.7,28.97,North,0,4.3,8.1,27,0.00,,,0.00,WUHU216WMR100,2013-06-03 22:43:00,
2013-06-03 18:48:00,71.2,35.3,28.97,NW,326,3.5,7.8,27,0.00,,,0.00,WUHU216WMR100,2013-06-03 22:48:00,
2013-06-03 18:53:00,71.1,37.0,28.97,NW,314,4.5,7.8,29,0.00,,,0.00,WUHU216WMR100,2013-06-03 22:53:00,
2013-06-03 18:58:00,70.5,35.7,28.97,NNW,337,4.0,8.5,28,0.00,,,0.00,WUHU216WMR100,2013-06-03 22:58:00,
2013-06-03 19:03:00,70.9,36.9,28.97,North,0,3.1,8.5,29,0.00,,,0.00,WUHU216WMR100,2013-06-03 23:03:00,
2013-06-03 19:09:00,70.2,35.4,28.97,North,349,4.5,7.6,28,0.00,,,0.00,WUHU216WMR100,2013-06-03 23:09:00,
2013-06-03 19:14:00,70.3,36.4,28.97,NNW,337,3.8,7.6,29,0.00,,,0.00,WUHU216WMR100,2013-06-03 23:14:00,
2013-06-03 19:19:00,70.2,35.4,29.00,North,0,2.7,6.0,28,0.00,,,0.00,WUHU216WMR100,2013-06-03 23:19:00,
2013-06-03 19:24:00,69.8,34.1,29.00,North,0,3.8,5.6,27,0.00,,,0.00,WUHU216WMR100,2013-06-03 23:24:00,
2013-06-03 19:29:00,69.4,34.7,29.00,NNW,338,2.5,7.4,28,0.00,,,0.00,WUHU216WMR100,2013-06-03 23:29:00,
2013-06-03 19:34:00,69.1,34.4,29.00,North,355,3.8,7.4,28,0.00,,,0.00,WUHU216WMR100,2013-06-03 23:34:00,
2013-06-03 19:39:00,68.5,32.1,29.00,NNW,337,3.6,7.8,26,0.00,,,0.00,WUHU216WMR100,2013-06-03 23:39:00,
2013-06-03 19:44:00,68.2,31.8,29.00,North,0,3.1,7.8,26,0.00,,,0.00,WUHU216WMR100,2013-06-03 23:44:00,
2013-06-03 19:49:00,67.8,32.4,29.00,ENE,67,2.7,6.5,27,0.00,,,0.00,WUHU216WMR100,2013-06-03 23:49:00,
2013-06-03 19:54:00,67.8,33.3,29.00,SSE,157,3.6,6.5,28,0.00,,,0.00,WUHU216WMR100,2013-06-03 23:54:00,
2013-06-03 19:59:00,67.3,32.0,29.00,ENE,58,2.4,4.3,27,0.00,,,0.00,WUHU216WMR100,2013-06-03 23:59:00,
2013-06-03 20:04:00,66.7,31.5,29.03,NW,325,2.6,5.6,27,0.00,,,0.00,WUHU216WMR100,2013-06-04 00:04:00,
2013-06-03 20:09:00,66.4,32.1,29.03,North,0,2.7,5.6,28,0.00,,,0.00,WUHU216WMR100,2013-06-04 00:09:00,
2013-06-03 20:14:00,65.8,32.5,29.03,NNW,337,2.6,4.9,29,0.00,,,0.00,WUHU216WMR100,2013-06-04 00:14:00,
2013-06-03 20:19:00,64.8,31.6,29.03,NNW,337,3.8,6.0,29,0.00,,,0.00,WUHU216WMR100,2013-06-04 00:19:00,
2013-06-03 20:24:00,63.9,32.5,29.03,North,0,3.6,6.0,31,0.00,,,0.00,WUHU216WMR100,2013-06-04 00:24:00,
2013-06-03 20:29:00,63.1,32.5,29.03,NNW,337,1.1,5.8,32,0.00,,,0.00,WUHU216WMR100,2013-06-04 00:29:00,
2013-06-03 20:34:00,62.2,33.3,29.00,North,0,3.8,5.6,34,0.00,,,0.00,WUHU216WMR100,2013-06-04 00:34:00,
2013-06-03 20:39:00,61.9,33.0,29.00,NW,315,2.2,4.3,34,0.00,,,0.00,WUHU216WMR100,2013-06-04 00:39:00,
2013-06-03 20:43:00,61.2,32.4,29.00,NNW,337,2.7,5.6,34,0.00,,,0.00,WUHU216WMR100,2013-06-04 00:43:00,
2013-06-03 20:48:00,60.6,32.6,29.03,North,0,2.2,5.6,35,0.00,,,0.00,WUHU216WMR100,2013-06-04 00:48:00,
2013-06-03 20:53:00,60.3,32.3,29.03,North,350,2.6,3.8,35,0.00,,,0.00,WUHU216WMR100,2013-06-04 00:53:00,
2013-06-03 20:58:00,59.9,32.7,29.03,North,0,2.2,3.8,36,0.00,,,0.00,WUHU216WMR100,2013-06-04 00:58:00,
2013-06-03 21:03:00,59.4,32.2,29.03,North,0,3.4,3.8,36,0.00,,,0.00,WUHU216WMR100,2013-06-04 01:03:00,
2013-06-03 21:09:00,59.0,31.9,29.03,NNW,332,2.3,3.8,36,0.00,,,0.00,WUHU216WMR100,2013-06-04 01:09:00,
2013-06-03 21:14:00,58.8,32.4,29.03,North,350,2.1,4.5,37,0.00,,,0.00,WUHU216WMR100,2013-06-04 01:14:00,
2013-06-03 21:19:00,58.5,32.1,29.03,NNE,22,2.9,4.5,37,0.00,,,0.00,WUHU216WMR100,2013-06-04 01:19:00,
2013-06-03 21:24:00,57.9,31.6,29.03,North,0,2.0,4.3,37,0.00,,,0.00,WUHU216WMR100,2013-06-04 01:24:00,
2013-06-03 21:29:00,57.7,31.4,29.03,North,0,3.1,4.3,37,0.00,,,0.00,WUHU216WMR100,2013-06-04 01:29:00,
2013-06-03 21:34:00,57.4,31.1,29.03,North,354,2.9,3.8,37,0.00,,,0.00,WUHU216WMR100,2013-06-04 01:34:00,
2013-06-03 21:39:00,57.0,30.8,29.03,North,3,1.9,4.3,37,0.00,,,0.00,WUHU216WMR100,2013-06-04 01:39:00,
2013-06-03 21:43:00,56.8,30.6,29.03,North,0,1.1,4.3,37,0.00,,,0.00,WUHU216WMR100,2013-06-04 01:43:00,
2013-06-03 21:48:00,56.7,31.2,29.06,NW,326,2.2,4.3,38,0.00,,,0.00,WUHU216WMR100,2013-06-04 01:48:00,
2013-06-03 21:53:00,56.3,30.8,29.06,NNW,337,2.5,3.8,38,0.00,,,0.00,WUHU216WMR100,2013-06-04 01:53:00,
2013-06-03 21:58:00,55.9,30.5,29.06,NNW,337,2.2,3.8,38,0.00,,,0.00,WUHU216WMR100,2013-06-04 01:58:00,
2013-06-03 22:03:00,55.6,30.2,29.06,NNW,337,1.1,3.1,38,0.00,,,0.00,WUHU216WMR100,2013-06-04 02:03:00,
2013-06-03 22:08:00,55.2,29.8,29.06,NNW,337,2.5,4.3,38,0.00,,,0.00,WUHU216WMR100,2013-06-04 02:08:00,
2013-06-03 22:13:00,55.2,29.8,29.06,NNW,335,2.3,4.3,38,0.00,,,0.00,WUHU216WMR100,2013-06-04 02:13:00,
2013-06-03 22:18:00,54.9,29.6,29.06,North,0,2.0,3.4,38,0.00,,,0.00,WUHU216WMR100,2013-06-04 02:18:00,
2013-06-03 22:23:00,54.5,29.9,29.06,North,0,1.6,2.9,39,0.00,,,0.00,WUHU216WMR100,2013-06-04 02:23:00,
2013-06-03 22:28:00,54.3,29.7,29.06,NNW,328,1.2,2.2,39,0.00,,,0.00,WUHU216WMR100,2013-06-04 02:28:00,
2013-06-03 22:33:00,53.6,29.0,29.06,WNW,292,0.0,2.0,39,0.00,,,0.00,WUHU216WMR100,2013-06-04 02:33:00,
2013-06-03 22:38:00,53.1,29.8,29.06,WNW,292,0.0,2.0,41,0.00,,,0.00,WUHU216WMR100,2013-06-04 02:38:00,
2013-06-03 22:43:00,52.7,29.5,29.06,NNW,337,0.0,0.0,41,0.00,,,0.00,WUHU216WMR100,2013-06-04 02:43:00,
2013-06-03 22:48:00,52.3,29.7,29.09,NNW,337,0.0,0.0,42,0.00,,,0.00,WUHU216WMR100,2013-06-04 02:48:00,
2013-06-03 22:53:00,51.8,29.9,29.09,NNW,337,0.0,0.0,43,0.00,,,0.00,WUHU216WMR100,2013-06-04 02:53:00,
2013-06-03 22:58:00,51.3,30.0,29.09,NNW,337,0.0,0.0,44,0.00,,,0.00,WUHU216WMR100,2013-06-04 02:58:00,
2013-06-03 23:03:00,50.9,30.2,29.09,NNW,337,0.0,0.0,45,0.00,,,0.00,WUHU216WMR100,2013-06-04 03:03:00,
2013-06-03 23:08:00,50.7,30.6,29.09,NNW,337,0.0,0.0,46,0.00,,,0.00,WUHU216WMR100,2013-06-04 03:08:00,
2013-06-03 23:14:00,50.2,30.1,29.09,NNW,337,0.0,0.0,46,0.00,,,0.00,WUHU216WMR100,2013-06-04 03:14:00,
2013-06-03 23:19:00,49.8,30.3,29.09,NNW,337,0.0,0.0,47,0.00,,,0.00,WUHU216WMR100,2013-06-04 03:19:00,
2013-06-03 23:24:00,49.6,30.6,29.09,NNW,337,0.0,0.0,48,0.00,,,0.00,WUHU216WMR100,2013-06-04 03:24:00,
2013-06-03 23:29:00,49.5,31.1,29.09,NNW,337,0.0,0.0,49,0.00,,,0.00,WUHU216WMR100,2013-06-04 03:29:00,
2013-06-03 23:34:00,48.9,30.5,29.09,NNW,337,0.0,0.0,49,0.00,,,0.00,WUHU216WMR100,2013-06-04 03:34:00,
2013-06-03 23:39:00,48.7,30.9,29.09,North,0,0.0,0.0,50,0.00,,,0.00,WUHU216WMR100,2013-06-04 03:39:00,
2013-06-03 23:45:00,48.6,30.8,29.09,North,0,0.0,0.0,50,0.00,,,0.00,WUHU216WMR100,2013-06-04 03:45:00,
2013-06-03 23:50:00,48.4,30.6,29.09,North,0,0.0,0.0,50,0.00,,,0.00,WUHU216WMR100,2013-06-04 03:50:00,
2013-06-03 23:55:00,48.0,31.2,29.09,North,0,0.0,0.0,52,0.00,,,0.00,WUHU216WMR100,2013-06-04 03:55:00,